World > North America > United States > Texas

Mound, Texas Regional Weather

Lat: 31.35N, Lon: 97.64W
Wx Zone: TXZ157Web Search
Mound Weather Warning NWS WEATHER ALERT FOR THE MOUND, TX AREA - Issued: 431 AM CDT Mon Apr 12 2021 Mound Weather Warning  

Helpful Tip: Type the letters wx in the search engine next time you need to find us.

Feedback


°F Click to change Mound hourly weather to Imperial units.Click to change Mound hourly weather to Metric units. °C
Mound Weather Map
UTC Time: 4/12/2021, 12:45
Your Time:

Mound, TX Regional Weather

Expires:202104121300;;434910
ASUS44 KFWD 121215
RWRTX 
NORTH TEXAS HOURLY WEATHER ROUNDUP
NATIONAL WEATHER SERVICE FORT WORTH TX
700 AM CDT MON APR 12 2021

NOTE: "FAIR" INDICATES FEW OR NO CLOUDS BELOW 12,000 FEET WITH NO
SIGNIFICANT WEATHER AND/OR OBSTRUCTIONS TO VISIBILITY.


TXZ143>147-156>162-174-175-121300-
CENTRAL TEXAS
  
CITY           SKY/WX    TMP DP  RH WIND       PRES   REMARKS
WACO           FAIR      61  58  90 S8        29.75R                  
6HR MIN TEMP:  61; 6HR MAX TEMP:  69;                                

WACO-TSTC      CLEAR    N/A N/A N/A CALM      29.76                   
WACO-MCGREGOR  FAIR      58  56  93 SE6       29.76R                  
6HR MIN TEMP:  57; 6HR MAX TEMP:  66;                                

HILLSBORO      FAIR      60  57  91 SE10      29.75R                  
6HR MIN TEMP:  59; 6HR MAX TEMP:  69;                                

CORSICANA      FAIR      56  50  80 SE7       29.78R                  
6HR MIN TEMP:  56; 6HR MAX TEMP:  67;                                

MEXIA          FAIR      56  52  88 SE3       29.77R                  
6HR MIN TEMP:  56; 6HR MAX TEMP:  67;                                

HEARNE         FAIR      56  51  84 CALM      29.78R                  
6HR MIN TEMP:  55; 6HR MAX TEMP:  67;                                

TEMPLE         FAIR      61  61 100 S9        29.76R                  
6HR MIN TEMP:  61; 6HR MAX TEMP:  69;                                

KILLEEN        MOCLDY    61  58  91 SE10      29.74R                  
6HR MIN TEMP:  60; 6HR MAX TEMP:  69;                                

KILLEEN-SKYLRK FAIR      62  60  93 S7        29.76R                  
6HR MIN TEMP:  62; 6HR MAX TEMP:  70;                                

FORT HOOD      FAIR      61  59  94 S7        29.75R                  
6HR MIN TEMP:  60; 6HR MAX TEMP:  70;                                

GATESVILLE     FAIR      59  55  88 CALM      29.77R                  
HAMILTON       FAIR      59  53  79 S8        29.75R                  
6HR MIN TEMP:  59; 6HR MAX TEMP:  67;                                

LAMPASAS       FAIR      58  55  87 S3        29.74R                  
6HR MIN TEMP:  58; 6HR MAX TEMP:  69;                                

$$


SKY/WX - Weather  TMP - Temperature  DP - Dew Point  RH - Relative Humidity
WIND - Wind Direction/Speed PRES - Barometric Pressure VSB - Visibility
WCI - Wind Chill Index E13G22 Wind - East Wind 13 mph/Gusts of 22 mph